Regional Weather Roundup
Issued by NWS

Home | Current Version | Previous Version | Graphics & Text | Print | Product List | Glossary On
Versions: 1 2 3 4 5 6 7 8 9 10 11 12 13 14 15 16 17 18 19 20 21 22 23 24 25 26 27 28 29 30 31 32 33 34 35 36 37 38 39 40 41 42 43 44 45 46 47 48 49 50
000
ASUS45 KTFX 071910
RWRMT
MONTANA REGIONAL WEATHER ROUNDUP
NATIONAL WEATHER SERVICE GREAT FALLS MT
100 PM MDT TUE JUL 07 2015

NOTE: "FAIR" INDICATES FEW OR NO CLOUDS BELOW 12000 FEET WITH NO
SIGNIFICANT WEATHER AND/OR OBSTRUCTIONS TO VISIBILITY.

MTZ001>007-043-072000-
WEST OF THE DIVIDE

CITY           SKY/WX    TMP DP  RH WIND       PRES   REMARKS
KALISPELL      MOCLDY    64  56  75 SW3       30.12S HAZE
MISSOULA       MOSUNNY   79  46  31 N17G28    30.06S
BUTTE          PTSUNNY   76  34  21 VRB6      30.11F
MULLAN PASS    LGT RAIN  60  48  64 VRB3      30.20F
DEER LODGE       N/A     75  43  31 N13G18    30.11F
EUREKA           N/A     75  54  46 S6        30.08F
HAMILTON         N/A     70  50  49 W5        30.08S
LIBBY            N/A     64  57  77 W3        30.10F
PLAINS           N/A     80  45  29 E10       30.08R
RONAN            N/A     74  52  46 NW9       30.12F
THOMPSON FALLS   N/A     79  47  32 NE12      30.08S
$$

MTZ008-052>055-072000-
SOUTHWEST MONTANA

CITY           SKY/WX    TMP DP  RH WIND       PRES   REMARKS
BOZEMAN        MOSUNNY   79  44  28 CALM      30.07F
DILLON         MOSUNNY   81  35  19 NE5       30.08F
W YELLOWSTONE  SUNNY     72  41  33 NW7       30.18F
THREE FORKS      N/A     78  60  53 NE10      30.06F
$$

MTZ009-010-012-014-046-048-049-054-072000-
EAST SLOPES AND CENTRAL MONTANA

CITY           SKY/WX    TMP DP  RH WIND       PRES   REMARKS
CUT BANK       CLOUDY    64  47  53 E6        30.17S
GREAT FALLS    LGT RAIN  59  54  83 NW12      30.16R
MALMSTROM AFB  LGT RAIN  64  54  71 NW12      30.15R
HELENA         MOSUNNY   70  48  45 N17       30.11F
CONRAD           N/A     61  58  90 W5        30.18S
$$

MTZ011-013-016-021-045-047-050-051-072000-
NORTH CENTRAL MONTANA

CITY           SKY/WX    TMP DP  RH WIND       PRES   REMARKS
HAVRE          CLOUDY    75  50  41 NW7       30.07F
LEWISTOWN      SUNNY     76  36  23 VRB7      30.12F
CHINOOK          N/A     75  46  35 W7        30.05F
FORT BENTON      N/A     70  48  46 NW8       30.13R
$$

MTZ017>020-022>027-061-062-072000-
NORTHEAST MONTANA

CITY           SKY/WX    TMP DP  RH WIND       PRES   REMARKS
GLASGOW        SUNNY     79  45  29 W9        30.01F
JORDAN           N/A     78  43  28 VRB5      30.03F
SIDNEY         MOSUNNY   79  48  34 SE7       30.03F
WOLF POINT     SUNNY     81  45  28 VRB5      30.01F
MALTA            N/A     79  44  28 W3        29.99S
PLENTYWOOD       N/A     70  57  64 NE8       30.01F
POPLAR           N/A     79  45  29 CALM      30.01F
SCOBEY           N/A     74  48  39 S3        30.01S
$$

MTZ028>42-056>058-072000-
SOUTHCENTRAL AND SOUTHEAST MONTANA

CITY           SKY/WX    TMP DP  RH WIND       PRES   REMARKS
BAKER          MOSUNNY   76  57  51 S14       30.03F
BILLINGS       MOSUNNY   80  42  25 S3        30.06F
LIVINGSTON     PTSUNNY   77  46  33 E3        30.08F
MILES CITY     PTSUNNY   78  49  35 N9        30.01F
EKALAKA          N/A     77  50  38 S3        30.02F
FORSYTH          N/A     77  48  36 N8G16     30.02F
LAUREL           N/A     80  49  33 NE7       30.04F
ROUNDUP          N/A     78  42  27 N10       29.98F
$$

REGIONAL REPORTS...DAKOTAS

CITY           SKY/WX    TMP DP  RH WIND       PRES   REMARKS
WILLISTON      MOSUNNY   79  48  33 S8        30.03F
MINOT          PTSUNNY   71  51  49 S15       30.06F
DICKINSON      PTSUNNY   74  58  57 SE15      30.05F
BEACH          FAIR      73  57  56 SE14G20   30.04F
CROSBY         FAIR      73  59  60 S10       30.03F
BISMARCK       MOSUNNY   72  56  57 SE15      30.10F
GRAND FORKS    MOSUNNY   69  45  41 VRB6      30.12F
FARGO          SUNNY     71  44  37 S10       30.15F
BUFFALO SD       N/A     80  53  39 S16G22    29.98F
RAPID CITY     MOSUNNY   71  59  65 S22       30.09F
$$

REGIONAL REPORTS...WYOMING/IDAHO/WASHINGTON

CITY           SKY/WX    TMP DP  RH WIND       PRES   REMARKS
GILLETTE       PTSUNNY   76  48  37 CALM      30.07F
SHERIDAN       MOSUNNY   75  49  39 S3        30.07F
BUFFALO WY     LGT RAIN  66  55  67 W14       30.13S
CODY           MOSUNNY   75  48  38 NE9       30.10F
YELLOWSTONE LA   N/A     60  44  55 E5        30.28F
IDAHO FALLS    MOSUNNY   77  55  46 VRB5      30.08
SALMON         MOSUNNY   79  48  34 NW5       30.00F
BOISE          PTSUNNY   86  49  27 VRB5      29.99F
SPOKANE        PTSUNNY   84  50  30 E8G17     29.97S
$$

REGIONAL REPORTS...ALBERTA

CITY           SKY/WX    TMP DP  RH WIND       PRES   REMARKS
EDMONTON       SUNNY     59  36  41 N12       30.14F
CALGARY        PTSUNNY   61  50  67 NE8       30.18F
LETHBRIDGE     PTSUNNY   64  54  68 W14       30.14S
MEDICINE HAT   PTSUNNY   77  48  36 NW13      30.06F
WATERTON GATE    N/A     70  45  40 SE5         N/A
MILK RIVER       N/A     66  52  59 N9          N/A
$$

REGIONAL REPORTS...SASKATCHEWAN

CITY           SKY/WX    TMP DP  RH WIND       PRES   REMARKS
SWIFT CURRENT  MOSUNNY   73  45  35 N13G26    30.02F
REGINA         PTSUNNY   75  50  41 W12       29.97F
SASKATOON      PTSUNNY   63  48  59 N15G24    30.05R
CYPRESS HILLS    N/A     66  43  42 N7          N/A
VAL MARIE        N/A     77  43  29 NW8         N/A
ROCKGLEN         N/A     75  41  29 W7          N/A
ASSINIBOIA       N/A     59  41  51 N6          N/A
$$



USA.gov is the U.S. government's official web portal to all federal, state and local government web resources and services.